Weather in Jalapa

Guatemala     14°38′01″N   89°59′28″W
temp.,
°C
wind,
m/s
gust,
m/s
humid.,
%
clouds,
%
prec.,
mm/h
press.,
hPa
HPBL,
m
18 april, sun
sun1800:00+20wsw0188100 6.1 101398
03:00+19ssw1191100 0.0 101237
06:00+18sw009136 0.7 101419
09:00+25n0062100 0.6 1014729
12:00+29ne014886 2.3 10121499
15:00+26se2257100 1.6 1009887
18:00+23sse126999 2.1 101182
21:00+22ese117548 0.5 101353
19 april, mon
mon1900:00+20s1183100 2.3 101419
03:00+19nw0191100 4.2 101323
06:00+19wsw119299 10.3 101455
09:00+19se2390100 15.0 1016211
12:00+22ese1171100 15.5 1014515
15:00+24ene1161100 0.0 1011704
18:00+21e117831 0.1 101220
21:00+20sse118421 0.2 101419
20 april, tue
tue2000:00+19sw118386 0.8 101411
03:00+18sw118863 1.0 101411
06:00+18wsw1190100 1.1 101511
09:00+23nnw1169100 0.0 1015727
12:00+28ne2150100 0.1 10131630
15:00+27ese225281 0.8 10101169
18:00+23se237286 2.1 101281
21:00+20sse1185100 1.3 101521
21 april, wed
wed2100:00+20sw008215 3.3 101513
03:00+18sw118765 0.6 101411
06:00+18se0189100 0.9 101612
09:00+23nne116891 0.7 1016715
12:00+27ne225489 1.8 10141644
15:00+26ene2258100 2.6 10121328
18:00+21ene2382100 6.2 101367
21:00+20ne1286100 2.2 101545
22 april, thu
thu2200:00+19ene1190100 2.7 101633
03:00+19ne119195 0.0 101495
06:00+18ne0195100 0.1 101594
09:00+21n127698 0.0 1016573
12:00+26nne225443 0.1 10141379
15:00+27ne234798 0.3 10102091
18:00+23ene236828 0.4 101284
21:00+19ene12867 0.0 101556